This demonstration page uses our WeatherBlox Daily Observations layout. Learn more.

Left ArrowRight Arrow

39.01783, -85.05884

Hourly Observations for April 1, 2019

Temp ( °F °C ) Dew Point ( °F °C ) Humidity (%) Winds ( mph kmh ) Pressure ( in mb ) Visibility ( mi km ) Precip ( " mm )
12:52 am 00:52 Clear 30 -1.1 18 -7.8 61 61 N 5 7 30.39 1029 10 16 N/A
1:52 am 01:52 Clear 28 -2.2 18 -7.8 66 66 N 3 6 30.40 1029 10 16 N/A
2:52 am 02:52 Clear 28 -2.2 18 -7.8 66 66 NNE 5 7 30.37 1029 10 16 N/A
3:52 am 03:52 Clear 28 -2.2 19 -7.2 69 69 NNE 5 7 30.36 1028 10 16 N/A
4:52 am 04:52 Clear 27 -2.8 19 -7.2 72 72 N 3 6 30.36 1028 10 16 N/A
5:52 am 05:52 Clear 25 -3.9 19 -7.2 78 78 N N/A 30.37 1029 10 16 N/A
6:52 am 06:52 Clear 23 -5 19 -7.2 85 85 N N/A 30.38 1029 10 16 N/A
7:52 am 07:52 Sunny 22 -5.6 19 -7.2 89 89 N N/A 30.40 1030 10 16 N/A
8:52 am 08:52 Sunny 31 -0.6 17 -8.3 56 56 NE 8 13 30.41 1030 10 16 N/A
9:52 am 09:52 Mostly Sunny 33 0.6 14 -10 45 45 ENE 9 15 30.42 1030 10 16 N/A
10:52 am 10:52 Mostly Sunny 34 1.1 14 -10 44 44 N N/A 30.43 1031 10 16 N/A
11:52 am 11:52 Mostly Cloudy 37 2.8 17 -8.3 44 44 E 6 9 30.42 1030 10 16 N/A
12:52 pm 12:52 Mostly Cloudy 39 3.9 17 -8.3 41 41 SE 6 9 30.40 1030 10 16 N/A
1:52 pm 13:52 Mostly Cloudy 42 5.6 16 -8.9 35 35 N N/A 30.39 1029 10 16 N/A
2:52 pm 14:52 Mostly Cloudy 43 6.1 17 -8.3 35 35 N N/A 30.34 1028 10 16 N/A
3:52 pm 15:52 Mostly Cloudy 44 6.7 19 -7.2 37 37 SSW 6 9 30.32 1027 10 16 N/A
4:52 pm 16:52 Mostly Cloudy 46 7.8 17 -8.3 31 31 NW 7 11 30.29 1026 10 16 N/A
5:52 pm 17:52 Mostly Cloudy 46 7.8 17 -8.3 31 31 VRB 3 6 30.28 1025 10 16 N/A
6:52 pm 18:52 Mostly Cloudy 45 7.2 18 -7.8 34 34 N N/A 30.26 1025 10 16 N/A
7:52 pm 19:52 Mostly Cloudy 42 5.6 19 -7.2 40 40 E 7 11 30.26 1025 10 16 N/A
8:52 pm 20:52 Mostly Cloudy 42 5.6 19 -7.2 40 40 E 7 11 30.24 1024 10 16 N/A
9:52 pm 21:52 Mostly Cloudy 40 4.4 21 -6.1 47 47 E 7 11 30.24 1024 10 16 N/A
10:52 pm 22:52 Mostly Cloudy 39 3.9 21 -6.1 48 48 E 6 9 30.25 1024 10 16 N/A
11:52 pm 23:52 Mostly Cloudy 38 3.3 22 -5.6 52 52 E 7 11 30.23 1024 10 16 N/A

Powered by AerisWeather